Weather History for KBML - May, 2013

Change the Weather History Date:

Wednesday, May 15, 2013

  Actual Average Record
Temperature  
Mean Temperature 44 °F -  
Max Temperature 64 °F 62 °F 84 °F (2004)
Min Temperature 24 °F 33 °F 24 °F (2013)
Degree Days  
Heating Degree Days 21    
Moisture  
Dew Point 32 °F    
Average Humidity 65    
Maximum Humidity 93    
Minimum Humidity 22    
Precipitation  
Precipitation 0.13 in - - ()
Sea Level Pressure  
Sea Level Pressure 29.84 in    
Wind  
Wind Speed 3 mph (SSE)    
Max Wind Speed 17 mph    
Max Gust Speed 29 mph    
Visibility 10 miles    
Events Rain    
Averages and records for this station are not official NWS values.
T = Trace of Precipitation, MM = Missing Value Source: NWS Daily Summary

Daily Weather History Graph

Daily Weather History Graph

Search for Another Location

Airport or City:

Trip Planner

Search our weather history database for the weather conditions in past years. The results will help you decide how hot, cold, wet, or windy it might be!

Date:

Astronomy

May. 15, 2013 Rise Set
Actual Time 5:16 AM EDT 8:06 PM EDT
Civil Twilight 4:42 AM EDT 8:40 PM EDT
Nautical Twilight 3:59 AM EDT 9:23 PM EDT
Astronomical Twilight 3:09 AM EDT 10:13 PM EDT
Moon 9:51 AM EDT (5/15) No Moon Set
Length of Visible Light 15h 57m
Length of Day
14h 49m
Waxing Crescent, 26% of the Moon is Illuminated
May 15
Waxing Crescent
May 18
First Quarter
May 25
Full
May 31
Last Quarter
Jun 8
New

Hourly Weather History & Observations

Time (EDT) Temp. Dew Point Humidity Pressure Visibility Wind Dir Wind Speed Gust Speed Precip Events Conditions
12:52 AM 28.9 °F 26.1 °F 89% 30.03 in 10.0 mi Calm Calm - N/A   Overcast
1:52 AM 28.0 °F 25.0 °F 88% 30.03 in 10.0 mi Calm Calm - N/A   Clear
2:52 AM 26.1 °F 24.1 °F 92% 30.03 in 10.0 mi Calm Calm - N/A   Clear
3:52 AM 26.1 °F 24.1 °F 92% 30.04 in 10.0 mi Calm Calm - N/A   Clear
4:52 AM 24.1 °F 21.0 °F 88% 30.03 in 10.0 mi Calm Calm - N/A   Clear
5:31 AM 26.6 °F 23.0 °F 86% 30.00 in 10.0 mi Calm Calm - N/A   Partly Cloudy
5:52 AM 25.0 °F 21.9 °F 88% 30.04 in 10.0 mi Calm Calm - N/A   Clear
6:52 AM 30.9 °F 27.0 °F 85% 30.04 in 10.0 mi Calm Calm - N/A   Clear
7:52 AM 39.0 °F 30.0 °F 70% 30.02 in 10.0 mi Calm Calm - N/A   Clear
8:52 AM 50.0 °F 24.1 °F 36% 29.99 in 10.0 mi Calm Calm - N/A   Clear
9:52 AM 55.9 °F 19.9 °F 25% 29.96 in 10.0 mi Variable 3.5 mph - N/A   Clear
10:52 AM 57.9 °F 19.0 °F 22% 29.94 in 10.0 mi Variable 3.5 mph - N/A   Clear
11:52 AM 60.1 °F 21.0 °F 22% 29.89 in 10.0 mi South 5.8 mph 23.0 mph N/A   Clear
12:52 PM 62.1 °F 25.0 °F 24% 29.85 in 10.0 mi SSE 9.2 mph - N/A   Clear
1:52 PM 63.0 °F 27.0 °F 26% 29.81 in 10.0 mi SE 17.3 mph 25.3 mph N/A   Clear
2:20 PM 64.4 °F 26.6 °F 24% 29.77 in 10.0 mi South 11.5 mph 26.5 mph N/A   Clear
2:52 PM 64.0 °F 28.9 °F 27% 29.78 in 10.0 mi SSE 13.8 mph 28.8 mph N/A   Clear
3:52 PM 63.0 °F 30.9 °F 30% 29.73 in 10.0 mi SSE 12.7 mph 21.9 mph N/A   Partly Cloudy
4:52 PM 61.0 °F 30.9 °F 32% 29.72 in 10.0 mi South 12.7 mph 19.6 mph N/A   Overcast
5:52 PM 50.0 °F 44.1 °F 80% 29.73 in 5.0 mi SE 11.5 mph 18.4 mph 0.07 in Rain Light Rain
6:52 PM 48.9 °F 44.1 °F 83% 29.71 in 10.0 mi SSE 4.6 mph - 0.05 in Rain Light Rain
7:52 PM 48.9 °F 45.0 °F 86% 29.67 in 10.0 mi Variable 5.8 mph - 0.01 in   Overcast
8:27 PM 50.0 °F 46.4 °F 87% 29.64 in 10.0 mi Variable 4.6 mph - N/A   Overcast
8:52 PM 50.0 °F 46.0 °F 86% 29.65 in 10.0 mi Calm Calm - N/A   Overcast
9:34 PM 50.0 °F 46.4 °F 87% 29.63 in 10.0 mi South 3.5 mph - N/A   Overcast
9:52 PM 50.0 °F 46.9 °F 89% 29.64 in 10.0 mi Calm Calm - N/A   Overcast
10:52 PM 50.0 °F 46.9 °F 89% 29.63 in 10.0 mi Calm Calm - N/A   Overcast
11:52 PM 48.9 °F 46.9 °F 93% 29.63 in 10.0 mi Calm Calm - N/A   Overcast